This is the latest recevied weather packets stored in our database for station/object KJ5JYX. If no packets are shown the sender has not sent any weather packets the latest 10 day(s).
| Time | Temp. | Humidity | Pressure | Rain* | Wind** | Luminosity | Snow |
|---|---|---|---|---|---|---|---|
| 1778033765 | 25.56° C | 82% | 1007.3 hPa | 0 mm | - | 0 W/m² | - |
| 1778033462 | 26.11° C | 81% | 1007.3 hPa | 0 mm | - | 0 W/m² | - |
| 1778033159 | 26.11° C | 81% | 1007.3 hPa | 0 mm | - | 0 W/m² | - |
| 1778032856 | 26.11° C | 81% | 1007.2 hPa | 0 mm | - | 0 W/m² | - |
| 1778032554 | 26.11° C | 80% | 1007.1 hPa | 0 mm | - | 0 W/m² | - |
| 1778032250 | 26.67° C | 80% | 1007.1 hPa | 0 mm | - | 0 W/m² | - |
| 1778031948 | 26.67° C | 79% | 1007.1 hPa | 0 mm | - | 0 W/m² | - |
| 1778031643 | 26.67° C | 79% | 1007.1 hPa | 0 mm | - | 0 W/m² | - |
| 1778031342 | 26.67° C | 79% | 1006.8 hPa | 0 mm | - | 0 W/m² | - |
| 1778031038 | 26.67° C | 78% | 1006.6 hPa | 0 mm | - | 0 W/m² | - |
| 1778030734 | 26.67° C | 78% | 1006.7 hPa | 0 mm | - | 0 W/m² | - |
| 1778030431 | 27.22° C | 78% | 1006.7 hPa | 0 mm | - | 1 W/m² | - |
| 1778030129 | 27.22° C | 78% | 1006.5 hPa | 0 mm | - | 1 W/m² | - |
| 1778029825 | 27.22° C | 77% | 1006.6 hPa | 0 mm | - | 2 W/m² | - |
| 1778029525 | 27.22° C | 77% | 1006.4 hPa | 0 mm | - | 3 W/m² | - |
| 1778029221 | 27.78° C | 77% | 1006.3 hPa | 0 mm | - | 5 W/m² | - |
| 1778028918 | 27.78° C | 76% | 1006.4 hPa | 0 mm | - | 9 W/m² | - |
| 1778028613 | 27.78° C | 76% | 1006.3 hPa | 0 mm | - | 10 W/m² | - |
| 1778028312 | 27.78° C | 75% | 1006.3 hPa | 0 mm | - | 13 W/m² | - |
| 1778028008 | 28.33° C | 75% | 1006.4 hPa | 0 mm | - | 17 W/m² | - |
| 1778027704 | 28.33° C | 74% | 1006.3 hPa | 0 mm | - | 26 W/m² | - |
| 1778027400 | 28.33° C | 74% | 1006.2 hPa | 0 mm | - | 33 W/m² | - |
| 1778027096 | 28.33° C | 75% | 1006.4 hPa | 0 mm | - | 33 W/m² | - |
| 1778026792 | 28.89° C | 72% | 1006.4 hPa | 0 mm | - | 32 W/m² | - |
| 1778026489 | 28.89° C | 71% | 1006.4 hPa | 0 mm | - | 39 W/m² | - |
* Rain latest hour (hover to see other rain measurements)
** Current wind speed in m/s (hover to see current wind gust speed)